sat.trackr.live / text

‹ back to catalog

STARLINK-31245

NORAD 58891 · 2024-020R

PAYLOAD ACTIVE UNKNOWN

§ Identity

Operator
Country
US
Launch date
2024-01-29
Launch site
AFWTR
Launch vehicle
Mass (kg)
RCS (m²)

Purposes: comms

External: N2YO · Heavens-Above · Gunter

§ Orbital elements

Epoch: 2026-09-20T21:43:15.809376Z

Period
93.85 min
Inclination
53.1593°
Eccentricity
0.0001278
Mean motion
15.34388501 rev/d
Perigee alt
461.9 km
Apogee alt
463.6 km
Semi-major
6,840.9 km
B*
1.5522e-5
RAAN
90.1459°
Arg perigee
79.9183°
Mean anomaly
280.1963°
Rev number
14,975

§ Raw data

STARLINK-312451 58891U 24020R   26263.90504409  .00000148  00000+0  15522-4 0  99902 58891  53.1593  90.1459 0001278  79.9183 280.1963 15.34388501149755

JSON: /api/v1/satellites/58891 · /tle

For live sub-satellite position, see the globe view (requires WebGL).

§ Visibility from observer

Set your observer location to see the next 7 days of passes ≥ 10°. The values pass through the URL so the page stays shareable.

No JS? Fill the form by hand. The geolocation button needs JavaScript.